| time (UTC) | temp F | wind direction | speed knots | gust knots | rain 1hr in | rain 24hr in | rain mn in | humidity % | barometer mb |
| 20260903084124 | 66 | 263 | 8.7 | 15.6 | 0.00 | 0.00 | 0.00 | 58 | 1021.0 |
| 20260903083512 | 66 | 283 | 10.4 | 16.5 | 0.00 | 0.00 | 0.00 | 60 | 1020.9 |
| 20260903082512 | 65 | 281 | 7.8 | 12.2 | 0.00 | 0.00 | 0.00 | 60 | 1021.0 |
| 20260903081125 | 65 | 279 | 7.8 | 11.3 | 0.00 | 0.00 | 0.00 | 63 | 1020.9 |
| 20260903080512 | 64 | 274 | 9.6 | 14.8 | 0.00 | 0.00 | 0.00 | 64 | 1021.2 |
| 20260903075512 | 64 | 272 | 10.4 | 14.8 | 0.00 | 0.00 | 0.00 | 64 | 1021.2 |
| 20260903074125 | 64 | 262 | 8.7 | 14.8 | 0.00 | 0.00 | 0.00 | 67 | 1021.3 |
| 20260903073511 | 63 | 247 | 7.8 | 13.0 | 0.00 | 0.00 | 0.00 | 70 | 1021.3 |
| 20260903072511 | 62 | 243 | 6.1 | 10.4 | 0.00 | 0.00 | 0.00 | 70 | 1021.4 |
| 20260903071125 | 62 | 254 | 5.2 | 8.7 | 0.00 | 0.00 | 0.00 | 72 | 1021.5 |
| 20260903070512 | 60 | 255 | 5.2 | 8.7 | 0.00 | 0.00 | 0.00 | 75 | 1021.8 |
| 20260903065512 | 61 | 255 | 5.2 | 8.7 | 0.00 | 0.00 | 0.00 | 73 | 1021.5 |
| 20260903064124 | 62 | 253 | 5.2 | 7.8 | 0.00 | 0.00 | 0.00 | 72 | 1021.3 |
| 20260903063511 | 61 | 254 | 4.3 | 7.0 | 0.00 | 0.00 | 0.00 | 73 | 1021.3 |
| 20260903062512 | 60 | 249 | 4.3 | 6.1 | 0.00 | 0.00 | 0.00 | 75 | 1021.5 |
| 20260903061125 | 59 | 257 | 2.6 | 5.2 | 0.00 | 0.00 | 0.00 | 78 | 1021.5 |
| 20260903060512 | 60 | 250 | 4.3 | 6.1 | 0.00 | 0.00 | 0.00 | 76 | 1021.5 |
| 20260903055511 | 60 | 251 | 3.5 | 7.0 | 0.00 | 0.00 | 0.00 | 76 | 1021.5 |
| 20260903054124 | 59 | 237 | 2.6 | 4.3 | 0.00 | 0.00 | 0.00 | 77 | 1021.5 |
| 20260903053512 | 57 | 248 | 2.6 | 4.3 | 0.00 | 0.00 | 0.00 | 78 | 1021.9 |
| 20260903052512 | 57 | 247 | 2.6 | 5.2 | 0.00 | 0.00 | 0.00 | 78 | 1021.9 |
| 20260903051125 | 58 | 247 | 2.6 | 5.2 | 0.00 | 0.00 | 0.00 | 77 | 1021.7 |
| 20260903050511 | 58 | 231 | 3.5 | 5.2 | 0.00 | 0.00 | 0.00 | 76 | 1021.5 |
| 20260903045512 | 57 | 243 | 2.6 | 4.3 | 0.00 | 0.00 | 0.00 | 78 | 1021.6 |
| 20260903044124 | 57 | 244 | 2.6 | 3.5 | 0.00 | 0.00 | 0.00 | 77 | 1021.5 |
| 20260903043511 | 58 | 243 | 3.5 | 5.2 | 0.00 | 0.00 | 0.00 | 76 | 1021.5 |
| 20260903042512 | 58 | 242 | 3.5 | 4.3 | 0.00 | 0.00 | 0.00 | 75 | 1021.2 |
| 20260903041124 | 59 | 239 | 3.5 | 5.2 | 0.00 | 0.00 | 0.00 | 73 | 1021.1 |
| 20260903040512 | 58 | 246 | 2.6 | 5.2 | 0.00 | 0.00 | 0.00 | 74 | 1021.1 |
| 20260903035512 | 59 | 242 | 2.6 | 4.3 | 0.00 | 0.00 | 0.00 | 73 | 1021.1 |
| 20260903034511 | 59 | 232 | 2.6 | 3.5 | 0.00 | 0.00 | 0.00 | 72 | 1021.0 |
| 20260903033511 | 60 | 240 | 2.6 | 3.5 | 0.00 | 0.00 | 0.00 | 72 | 1021.0 |
| 20260903032512 | 59 | 231 | 0.9 | 2.6 | 0.00 | 0.00 | 0.00 | 75 | 1021.1 |
| 20260903031125 | 59 | 266 | 0.9 | 1.7 | 0.00 | 0.00 | 0.00 | 72 | 1021.1 |
| 20260903030512 | 59 | 278 | 1.7 | 3.5 | 0.00 | 0.00 | 0.00 | 71 | 1021.1 |
| 20260903025512 | 59 | 253 | 1.7 | 2.6 | 0.00 | 0.00 | 0.00 | 70 | 1021.0 |
| 20260903024512 | 60 | 245 | 1.7 | 3.5 | 0.00 | 0.00 | 0.00 | 69 | 1020.9 |
| 20260903023512 | 60 | 227 | 2.6 | 3.5 | 0.00 | 0.00 | 0.00 | 70 | 1020.7 |
| 20260903022512 | 60 | 225 | 1.7 | 4.3 | 0.00 | 0.00 | 0.00 | 70 | 1020.7 |
| 20260903021124 | 59 | 242 | 2.6 | 4.3 | 0.00 | 0.00 | 0.00 | 73 | 1020.8 |
| 20260903020512 | 59 | 257 | 1.7 | 3.5 | 0.00 | 0.00 | 0.00 | 74 | 1020.9 |
| 20260903015512 | 58 | 255 | 1.7 | 3.5 | 0.00 | 0.00 | 0.00 | 74 | 1021.1 |
| 20260903014124 | 58 | 242 | 0.9 | 2.6 | 0.00 | 0.00 | 0.00 | 74 | 1021.1 |
| 20260903013511 | 58 | 110 | 0.9 | 1.7 | 0.00 | 0.00 | 0.00 | 74 | 1021.1 |
| 20260903012511 | 58 | 110 | 0.0 | 1.7 | 0.00 | 0.00 | 0.00 | 77 | 1021.3 |
| 20260903011125 | 58 | 268 | 0.9 | 1.7 | 0.00 | 0.00 | 0.00 | 73 | 1021.1 |
| 20260903010512 | 58 | 255 | 1.7 | 2.6 | 0.00 | 0.00 | 0.00 | 75 | 1021.1 |
| 20260903005512 | 59 | 248 | 0.9 | 1.7 | 0.00 | 0.00 | 0.00 | 70 | 1020.9 |
| 20260903004125 | 59 | 146 | 0.9 | 1.7 | 0.00 | 0.00 | 0.00 | 69 | 1020.9 |
| 20260903003512 | 59 | 148 | 0.9 | 1.7 | 0.00 | 0.00 | 0.00 | 71 | 1020.9 |
| 20260903002512 | 59 | 249 | 0.0 | 1.7 | 0.00 | 0.00 | 0.00 | 72 | 1020.9 |
| 20260903001524 | 59 | 208 | 0.9 | 1.7 | 0.00 | 0.00 | 0.00 | 72 | 1021.0 |
| 20260903000511 | 59 | 137 | 0.0 | 0.9 | 0.00 | 0.00 | 0.00 | 71 | 1021.0 |
| 20260902235511 | 59 | 96 | 1.7 | 1.7 | 0.00 | 0.00 | 0.00 | 70 | 1021.0 |
| 20260902234125 | 59 | 81 | 1.7 | 1.7 | 0.00 | 0.00 | 0.00 | 73 | 1021.3 |
| 20260902233511 | 59 | 91 | 1.7 | 1.7 | 0.00 | 0.00 | 0.00 | 71 | 1021.3 |
| 20260902232511 | 59 | 71 | 0.9 | 1.7 | 0.00 | 0.00 | 0.00 | 71 | 1021.3 |
| 20260902231512 | 59 | 31 | 0.0 | 0.9 | 0.00 | 0.00 | 0.00 | 72 | 1021.3 |
| 20260902230511 | 59 | 99 | 0.9 | 1.7 | 0.00 | 0.00 | 0.00 | 72 | 1021.3 |
| 20260902225512 | 59 | 82 | 1.7 | 1.7 | 0.00 | 0.00 | 0.00 | 72 | 1021.3 |
| 20260902224125 | 59 | 73 | 1.7 | 1.7 | 0.00 | 0.00 | 0.00 | 72 | 1021.3 |
| 20260902223512 | 59 | 74 | 1.7 | 2.6 | 0.00 | 0.00 | 0.00 | 71 | 1021.3 |
| 20260902222512 | 59 | 57 | 2.6 | 3.5 | 0.00 | 0.00 | 0.00 | 72 | 1021.3 |
| 20260902221125 | 59 | 58 | 2.6 | 3.5 | 0.00 | 0.00 | 0.00 | 74 | 1021.1 |
| 20260902220511 | 58 | 63 | 2.6 | 3.5 | 0.00 | 0.00 | 0.00 | 75 | 1021.2 |
| 20260902215512 | 58 | 66 | 2.6 | 3.5 | 0.00 | 0.00 | 0.00 | 77 | 1021.2 |
| 20260902214125 | 59 | 49 | 0.9 | 2.6 | 0.00 | 0.00 | 0.00 | 72 | 1021.0 |
| 20260902213511 | 59 | 152 | 0.0 | 1.7 | 0.00 | 0.00 | 0.00 | 70 | 1020.9 |
| 20260902211125 | 61 | 71 | 1.7 | 2.6 | 0.00 | 0.00 | 0.00 | 64 | 1020.7 |
| 20260902210512 | 61 | 99 | 0.9 | 1.7 | 0.00 | 0.00 | 0.00 | 65 | 1020.6 |
| 20260902205512 | 61 | 140 | 0.9 | 2.6 | 0.00 | 0.00 | 0.00 | 64 | 1020.6 |
| 20260902204126 | 61 | 138 | 0.9 | 2.6 | 0.00 | 0.00 | 0.00 | 63 | 1020.6 |
| 20260902203512 | 61 | 136 | 0.9 | 1.7 | 0.00 | 0.00 | 0.00 | 66 | 1020.7 |
| 20260902202512 | 60 | 185 | 0.9 | 1.7 | 0.00 | 0.00 | 0.00 | 67 | 1020.8 |
| 20260902201125 | 60 | 223 | 1.7 | 2.6 | 0.00 | 0.00 | 0.00 | 68 | 1020.8 |
| 20260902200512 | 61 | 196 | 0.9 | 1.7 | 0.00 | 0.00 | 0.00 | 67 | 1020.7 |
| 20260902195512 | 61 | 154 | 0.0 | 0.9 | 0.00 | 0.00 | 0.00 | 64 | 1020.5 |
| 20260902194125 | 61 | 164 | 0.0 | 1.7 | 0.00 | 0.00 | 0.00 | 67 | 1020.7 |
| 20260902193512 | 61 | 215 | 0.9 | 1.7 | 0.00 | 0.00 | 0.00 | 65 | 1020.7 |
| 20260902192511 | 62 | 211 | 1.7 | 2.6 | 0.00 | 0.00 | 0.00 | 61 | 1020.5 |
| 20260902191125 | 62 | 360 | 0.0 | 1.7 | 0.00 | 0.00 | 0.00 | 61 | 1020.5 |
| 20260902190511 | 62 | 44 | 1.7 | 2.6 | 0.00 | 0.00 | 0.00 | 62 | 1020.4 |
| 20260902185512 | 62 | 77 | 1.7 | 2.6 | 0.00 | 0.00 | 0.00 | 64 | 1020.3 |
| 20260902184125 | 62 | 71 | 1.7 | 2.6 | 0.00 | 0.00 | 0.00 | 65 | 1020.3 |
| 20260902183512 | 62 | 39 | 0.9 | 1.7 | 0.00 | 0.00 | 0.00 | 65 | 1020.2 |
| 20260902182512 | 62 | 237 | 0.9 | 0.9 | 0.00 | 0.00 | 0.00 | 63 | 1020.1 |
| 20260902181125 | 63 | 270 | 0.9 | 1.7 | 0.00 | 0.00 | 0.00 | 60 | 1019.9 |
| 20260902180512 | 63 | 303 | 1.7 | 2.6 | 0.00 | 0.00 | 0.00 | 62 | 1019.8 |
| 20260902175512 | 64 | 307 | 1.7 | 2.6 | 0.00 | 0.00 | 0.00 | 58 | 1019.8 |
| 20260902174125 | 64 | 313 | 2.6 | 2.6 | 0.00 | 0.00 | 0.00 | 58 | 1019.6 |
| 20260902173511 | 65 | 307 | 2.6 | 3.5 | 0.00 | 0.00 | 0.00 | 58 | 1019.6 |
| 20260902172512 | 65 | 287 | 3.5 | 5.2 | 0.00 | 0.00 | 0.00 | 58 | 1019.5 |
| 20260902171125 | 66 | 279 | 3.5 | 5.2 | 0.00 | 0.00 | 0.00 | 55 | 1019.3 |
| 20260902170512 | 66 | 267 | 3.5 | 6.1 | 0.00 | 0.00 | 0.00 | 56 | 1019.2 |
| 20260902165512 | 67 | 267 | 3.5 | 6.1 | 0.00 | 0.00 | 0.00 | 54 | 1019.2 |
| 20260902164125 | 67 | 273 | 5.2 | 11.3 | 0.00 | 0.00 | 0.00 | 54 | 1019.1 |
| 20260902163512 | 67 | 275 | 6.1 | 9.6 | 0.00 | 0.00 | 0.00 | 52 | 1019.1 |
| 20260902162512 | 68 | 283 | 5.2 | 9.6 | 0.00 | 0.00 | 0.00 | 52 | 1018.9 |
| 20260902161125 | 69 | 267 | 7.0 | 10.4 | 0.00 | 0.00 | 0.00 | 49 | 1018.8 |
| 20260902160511 | 71 | 264 | 7.0 | 11.3 | 0.00 | 0.00 | 0.00 | 46 | 1018.6 |
| 20260902155512 | 70 | 273 | 7.8 | 11.3 | 0.00 | 0.00 | 0.00 | 48 | 1018.7 |
| 20260902154125 | 69 | 260 | 7.8 | 14.8 | 0.00 | 0.00 | 0.00 | 47 | 1018.9 |
| 20260902153512 | 68 | 284 | 7.8 | 12.2 | 0.00 | 0.00 | 0.00 | 48 | 1019.1 |
| 20260902152511 | 70 | 276 | 8.7 | 13.9 | 0.00 | 0.00 | 0.00 | 44 | 1018.8 |
| 20260902151125 | 71 | 254 | 7.0 | 11.3 | 0.00 | 0.00 | 0.00 | 43 | 1018.6 |
| 20260902150512 | 70 | 267 | 7.0 | 12.2 | 0.00 | 0.00 | 0.00 | 47 | 1018.6 |
| 20260902145512 | 69 | 271 | 7.0 | 10.4 | 0.00 | 0.00 | 0.00 | 47 | 1019.0 |
| 20260902144125 | 71 | 241 | 8.7 | 13.9 | 0.00 | 0.00 | 0.00 | 45 | 1018.8 |
| 20260902143511 | 71 | 300 | 8.7 | 13.0 | 0.00 | 0.00 | 0.00 | 46 | 1018.6 |
| 20260902142512 | 71 | 290 | 2.6 | 10.4 | 0.00 | 0.00 | 0.00 | 48 | 1018.7 |
| 20260902141125 | 71 | 261 | 3.5 | 9.6 | 0.00 | 0.00 | 0.00 | 46 | 1018.8 |
| 20260902140512 | 72 | 273 | 3.5 | 9.6 | 0.00 | 0.00 | 0.00 | 45 | 1018.7 |
| 20260902135512 | 70 | 301 | 7.8 | 10.4 | 0.00 | 0.00 | 0.00 | 47 | 1018.9 |
| 20260902134124 | 71 | 288 | 5.2 | 9.6 | 0.00 | 0.00 | 0.00 | 48 | 1018.8 |
| 20260902133512 | 70 | 281 | 4.3 | 11.3 | 0.00 | 0.00 | 0.00 | 50 | 1018.9 |
| 20260902132512 | 69 | 293 | 7.0 | 10.4 | 0.00 | 0.00 | 0.00 | 52 | 1019.4 |
| 20260902131125 | 69 | 294 | 4.3 | 8.7 | 0.00 | 0.00 | 0.00 | 52 | 1019.4 |
| 20260902130512 | 69 | 312 | 7.0 | 10.4 | 0.00 | 0.00 | 0.00 | 53 | 1019.5 |
| 20260902125512 | 70 | 318 | 6.1 | 11.3 | 0.00 | 0.00 | 0.00 | 51 | 1019.3 |
| 20260902124124 | 70 | 301 | 3.5 | 8.7 | 0.00 | 0.00 | 0.00 | 52 | 1019.5 |
| 20260902123512 | 69 | 301 | 6.1 | 9.6 | 0.00 | 0.00 | 0.00 | 55 | 1019.6 |
| 20260902122512 | 69 | 264 | 3.5 | 7.0 | 0.00 | 0.00 | 0.00 | 51 | 1019.7 |
| 20260902121125 | 69 | 291 | 5.2 | 9.6 | 0.00 | 0.00 | 0.00 | 54 | 1019.8 |
| 20260902120511 | 68 | 278 | 3.5 | 7.8 | 0.00 | 0.00 | 0.00 | 51 | 1019.9 |
| 20260902115511 | 69 | 283 | 6.1 | 9.6 | 0.00 | 0.00 | 0.00 | 52 | 1020.0 |
| 20260902114125 | 68 | 284 | 7.0 | 10.4 | 0.00 | 0.00 | 0.00 | 52 | 1020.1 |
| 20260902113512 | 69 | 279 | 7.0 | 12.2 | 0.00 | 0.00 | 0.00 | 51 | 1020.2 |
| 20260902112512 | 69 | 282 | 6.1 | 9.6 | 0.00 | 0.00 | 0.00 | 51 | 1020.1 |
| 20260902111125 | 68 | 275 | 7.0 | 11.3 | 0.00 | 0.00 | 0.00 | 51 | 1020.3 |
| 20260902110512 | 68 | 289 | 8.7 | 11.3 | 0.00 | 0.00 | 0.00 | 51 | 1020.4 |
| 20260902105511 | 68 | 295 | 7.0 | 11.3 | 0.00 | 0.00 | 0.00 | 50 | 1020.3 |
| 20260902104125 | 69 | 287 | 7.0 | 12.2 | 0.00 | 0.00 | 0.00 | 51 | 1020.2 |
| 20260902103512 | 71 | 242 | 4.3 | 9.6 | 0.00 | 0.00 | 0.00 | 48 | 1020.0 |
| 20260902102511 | 70 | 242 | 6.1 | 11.3 | 0.00 | 0.00 | 0.00 | 47 | 1020.2 |
| 20260902101125 | 69 | 207 | 7.8 | 11.3 | 0.00 | 0.00 | 0.00 | 48 | 1020.3 |
| 20260902100512 | 70 | 265 | 3.5 | 7.0 | 0.00 | 0.00 | 0.00 | 50 | 1020.0 |
| 20260902095512 | 68 | 224 | 5.2 | 9.6 | 0.00 | 0.00 | 0.00 | 48 | 1020.5 |
| 20260902094125 | 69 | 275 | 5.2 | 10.4 | 0.00 | 0.00 | 0.00 | 50 | 1020.3 |
| 20260902093512 | 68 | 222 | 1.7 | 7.0 | 0.00 | 0.00 | 0.00 | 49 | 1020.4 |
| 20260902092511 | 68 | 248 | 4.3 | 9.6 | 0.00 | 0.00 | 0.00 | 50 | 1020.5 |
| 20260902091124 | 68 | 240 | 3.5 | 9.6 | 0.00 | 0.00 | 0.00 | 51 | 1020.5 |
| 20260902090512 | 68 | 250 | 3.5 | 7.0 | 0.00 | 0.00 | 0.00 | 51 | 1020.5 |